Salina, KS

2:32 PM CDT on June 25, 2017 (GMT -0500)
Salina Municipal

Weather History for KSLN - April, 2014

Change the Weather History Date:

Monday, April 21, 2014

  Actual Average Record
Temperature  
Mean Temperature 66 °F 57 °F  
Max Temperature 82 °F 69 °F 94 °F (1989)
Min Temperature 49 °F 45 °F 21 °F (1966)
Degree Days  
Heating Degree Days 0 9  
Month to date heating degree days 247 250  
Since 1 July heating degree days 5232 4700  
Cooling Degree Days 1 1  
Month to date cooling degree days 17 13  
Year to date cooling degree days 17 15  
Growing Degree Days 16 (Base 50)    
Moisture  
Dew Point 43 °F    
Average Humidity 55    
Maximum Humidity 93    
Minimum Humidity 16    
Precipitation  
Precipitation T in 0.10 in 1.01 in (1973)
Month to date precipitation 0.22 2.03  
Year to date precipitation 2.33 6.22  
Sea Level Pressure  
Sea Level Pressure 30.01 in    
Wind  
Wind Speed 11 mph (NNW)    
Max Wind Speed 28 mph    
Max Gust Speed 35 mph    
Visibility 9 miles    
Events      
T = Trace of Precipitation, MM = Missing Value Source: NWS Daily Summary

Daily Weather History Graph

Daily Weather History Graph

Search for Another Location

Airport or City:

Trip Planner

Search our weather history database for the weather conditions in past years. The results will help you decide how hot, cold, wet, or windy it might be!

Date:

Astronomy

Apr. 21, 2014 Rise Set
Actual Time 6:45 AM CDT 8:13 PM CDT
Civil Twilight 6:17 AM CDT 8:41 PM CDT
Nautical Twilight 5:44 AM CDT 9:15 PM CDT
Astronomical Twilight 5:09 AM CDT 9:50 PM CDT
Moon 1:43 AM CDT (4/21) 12:14 PM CDT (4/21)
Length of Visible Light 14h 23m
Length of Day
13h 27m
Waning Gibbous, 57% of the Moon is Illuminated
Apr 21
Waning Gibbous
Apr 22
Last Quarter
Apr 29
New
May 6
First Quarter
May 14
Full

Hourly Weather History & Observations

Time (CDT) Temp. Dew Point Humidity Pressure Visibility Wind Dir Wind Speed Gust Speed Precip Events Conditions
12:53 AM 61.0 °F 54.0 °F 78% 29.97 in 10.0 mi SE 5.8 mph - N/A   Mostly Cloudy
1:53 AM 57.0 °F 52.0 °F 83% 29.97 in 10.0 mi South 4.6 mph - N/A   Scattered Clouds
2:53 AM 55.0 °F 50.0 °F 83% 29.94 in 10.0 mi SSE 6.9 mph - N/A   Clear
3:53 AM 55.9 °F 51.1 °F 84% 29.94 in 9.0 mi South 8.1 mph - N/A   Clear
4:53 AM 53.1 °F 50.0 °F 89% 29.95 in 7.0 mi SSW 5.8 mph - N/A   Clear
5:53 AM 53.1 °F 50.0 °F 89% 29.97 in 6.0 mi SSW 4.6 mph - N/A   Overcast
6:53 AM 54.0 °F 51.1 °F 90% 30.00 in 6.0 mi NW 3.5 mph - N/A   Mostly Cloudy
7:53 AM 55.0 °F 52.0 °F 89% 29.99 in 10.0 mi SSW 9.2 mph - N/A   Partly Cloudy
8:53 AM 60.1 °F 54.0 °F 80% 29.99 in 8.0 mi Calm Calm - N/A   Overcast
9:53 AM 64.9 °F 55.9 °F 73% 30.02 in 10.0 mi NW 12.7 mph - N/A   Scattered Clouds
10:53 AM 73.0 °F 53.1 °F 49% 30.02 in 10.0 mi North 17.3 mph - N/A   Partly Cloudy
11:53 AM 69.1 °F 52.0 °F 54% 30.03 in 10.0 mi North 15.0 mph - N/A   Overcast
12:53 PM 75.0 °F 52.0 °F 44% 30.01 in 10.0 mi North 11.5 mph - N/A   Clear
1:53 PM 80.1 °F 48.0 °F 32% 30.00 in 10.0 mi North 15.0 mph 21.9 mph 0.00 in   Clear
2:53 PM 81.0 °F 46.0 °F 29% 30.00 in 10.0 mi North 18.4 mph 27.6 mph N/A   Clear
3:53 PM 81.0 °F 39.9 °F 23% 30.00 in 10.0 mi North 20.7 mph 27.6 mph N/A   Clear
4:53 PM 80.1 °F 34.0 °F 19% 30.00 in 10.0 mi North 21.9 mph 29.9 mph N/A   Clear
5:53 PM 78.1 °F 28.0 °F 16% 30.01 in 10.0 mi North 20.7 mph 29.9 mph N/A   Clear
6:53 PM 75.0 °F 27.0 °F 17% 30.03 in 10.0 mi North 20.7 mph 26.5 mph N/A   Clear
7:53 PM 71.1 °F 27.0 °F 19% 30.05 in 10.0 mi North 11.5 mph - N/A   Clear
8:53 PM 69.1 °F 24.1 °F 18% 30.06 in 10.0 mi North 12.7 mph - N/A   Clear
9:53 PM 64.9 °F 24.1 °F 21% 30.07 in 10.0 mi NNE 6.9 mph - N/A   Clear
10:53 PM 52.0 °F 28.9 °F 41% 30.10 in 10.0 mi NW 6.9 mph - N/A   Clear
11:53 PM 52.0 °F 28.0 °F 40% 30.11 in 10.0 mi NW 4.6 mph - N/A   Clear